This is the latest recevied weather packets stored in our database for station/object JH5HTX-13. If no packets are shown the sender has not sent any weather packets the latest 10 day(s).
| Time | Temp. | Humidity | Pressure | Rain* | Wind** | Luminosity | Snow |
|---|---|---|---|---|---|---|---|
| 1777644867 | 15.56° C | 74% | 1009.4 hPa | 0 mm | - | - | - |
| 1777643967 | 15.56° C | 74% | 1009.2 hPa | 0 mm | - | - | - |
| 1777642167 | 15.56° C | 74% | 1008.9 hPa | 0 mm | - | - | - |
| 1777637667 | 15° C | 73% | 1007.5 hPa | 0 mm | - | - | - |
| 1777636767 | 15° C | 73% | 1007.3 hPa | 0 mm | - | - | - |
| 1777634966 | 14.44° C | 72% | 1006.9 hPa | 0 mm | - | - | - |
| 1777634066 | 14.44° C | 72% | 1006.6 hPa | 0 mm | - | - | - |
| 1777633166 | 14.44° C | 72% | 1006.5 hPa | 0 mm | - | - | - |
| 1777632266 | 14.44° C | 72% | 1006.1 hPa | 0 mm | - | - | - |
| 1777631366 | 14.44° C | 72% | 1006 hPa | 0 mm | - | - | - |
| 1777630466 | 14.44° C | 72% | 1006.1 hPa | 0 mm | - | - | - |
| 1777629566 | 14.44° C | 72% | 1006.2 hPa | 0 mm | - | - | - |
| 1777628666 | 14.44° C | 73% | 1005.8 hPa | 0 mm | - | - | - |
| 1777627765 | 14.44° C | 73% | 1005.6 hPa | 0 mm | - | - | - |
| 1777626865 | 14.44° C | 73% | 1005.3 hPa | 0 mm | - | - | - |
| 1777625965 | 13.89° C | 73% | 1005 hPa | 0 mm | - | - | - |
| 1777625065 | 14.44° C | 73% | 1004.8 hPa | 0 mm | - | - | - |
| 1777624165 | 14.44° C | 73% | 1004.8 hPa | 0 mm | - | - | - |
| 1777623265 | 14.44° C | 73% | 1004.5 hPa | 0 mm | - | - | - |
| 1777622365 | 13.89° C | 75% | 1004.4 hPa | 0 mm | - | - | - |
| 1777621465 | 13.89° C | 77% | 1004.5 hPa | 0 mm | - | - | - |
| 1777620565 | 14.44° C | 73% | 1004.3 hPa | 0 mm | - | - | - |
| 1777619665 | 15° C | 71% | 1003.7 hPa | 0 mm | - | - | - |
| 1777618764 | 15.56° C | 71% | 1003.5 hPa | 0 mm | - | - | - |
| 1777617864 | 15° C | 69% | 1003.4 hPa | 0 mm | - | - | - |
* Rain latest hour (hover to see other rain measurements)
** Current wind speed in m/s (hover to see current wind gust speed)